Change the Weather History Date:

Tuesday, April 23, 2013

  Actual Average Record
Temperature  
Mean Temperature 44 °F 53 °F  
Max Temperature 52 °F 64 °F 91 °F (1980)
Min Temperature 36 °F 43 °F 25 °F (1956)
Degree Days  
Heating Degree Days 21 12  
Month to date heating degree days 449 353  
Since 1 July heating degree days 6189 6120  
Cooling Degree Days 0 0  
Month to date cooling degree days 0 0  
Year to date cooling degree days 0 0  
Moisture  
Dew Point 34 °F    
Average Humidity 76    
Maximum Humidity 93    
Minimum Humidity 59    
Precipitation  
Precipitation 0.14 in 0.13 in 2.05 in (1989)
Month to date precipitation 8.44 2.44  
Year to date precipitation 13.32 6.82  
Sea Level Pressure  
Sea Level Pressure 30.04 in    
Wind  
Wind Speed 12 mph (NNW)    
Max Wind Speed 20 mph    
Max Gust Speed 25 mph    
Visibility 10 miles    
Events Rain , Snow    
T = Trace of Precipitation, MM = Missing Value Source: NWS Daily Summary

Daily Weather History Graph

Daily Weather History Graph

Search for Another Location

Airport or City:

Trip Planner

Search our weather history database for the weather conditions in past years. The results will help you decide how hot, cold, wet, or windy it might be!

Date:

Astronomy

Apr. 23, 2013 Rise Set
Actual Time 6:13 AM CDT 7:55 PM CDT
Civil Twilight 5:44 AM CDT 8:25 PM CDT
Nautical Twilight 5:08 AM CDT 9:01 PM CDT
Astronomical Twilight 4:30 AM CDT 9:39 PM CDT
Moon 5:49 PM CDT (4/23) 4:43 AM CDT (4/23)
Length of Visible Light 14h 41m
Length of Day
13h 42m
Waxing Gibbous, 94% of the Moon is Illuminated
Apr 23
Waxing Gibbous
Apr 25
Full
May 2
Last Quarter
May 9
New
May 17
First Quarter

Hourly Weather History & Observations

Time (CDT) Temp. Windchill Dew Point Humidity Pressure Visibility Wind Dir Wind Speed Gust Speed Precip Events Conditions
12:52 AM 53.1 °F - 48.0 °F 83% 29.98 in 10.0 mi Calm Calm - N/A   Overcast
1:52 AM 50.0 °F - 48.0 °F 93% 30.00 in 10.0 mi West 4.6 mph - N/A   Overcast
2:30 AM 51.8 °F - 48.2 °F 88% 30.02 in 10.0 mi West 13.8 mph - N/A   Overcast
3:06 AM 44.6 °F 37.8 °F 39.2 °F 81% 29.99 in 10.0 mi NW 15.0 mph 23.0 mph N/A   Overcast
3:47 AM 41.0 °F 33.9 °F 37.4 °F 87% 30.02 in 10.0 mi NW 12.7 mph 21.9 mph N/A   Overcast
3:52 AM 41.0 °F 33.1 °F 37.0 °F 86% 30.03 in 10.0 mi NW 15.0 mph 21.9 mph N/A   Overcast
4:14 AM 41.0 °F 33.1 °F 37.4 °F 87% 30.01 in 10.0 mi NW 15.0 mph 18.4 mph N/A   Overcast
4:36 AM 39.2 °F 29.8 °F 35.6 °F 87% 30.01 in 10.0 mi NW 18.4 mph 25.3 mph N/A Rain Light Rain
4:48 AM 39.2 °F 30.5 °F 35.6 °F 87% 30.03 in 10.0 mi NW 16.1 mph 24.2 mph N/A   Overcast
4:52 AM 39.0 °F 31.0 °F 35.1 °F 86% 30.04 in 10.0 mi NW 13.8 mph 24.2 mph N/A   Overcast
5:52 AM 39.0 °F 31.8 °F 34.0 °F 82% 30.04 in 10.0 mi NNW 11.5 mph 24.2 mph N/A   Overcast
6:52 AM 37.9 °F 30.9 °F 33.1 °F 83% 30.06 in 10.0 mi NNW 10.4 mph 19.6 mph N/A   Overcast
7:24 AM 37.4 °F 28.5 °F 32.0 °F 81% 30.04 in - NNW 15.0 mph - N/A   Unknown
7:52 AM 37.9 °F 30.5 °F 32.0 °F 79% 30.05 in 10.0 mi NNW 11.5 mph - N/A   Overcast
8:28 AM 37.4 °F 29.8 °F 30.2 °F 75% 30.04 in 10.0 mi North 11.5 mph 17.3 mph N/A   Overcast
8:52 AM 37.9 °F 30.5 °F 32.0 °F 79% 30.06 in 10.0 mi NNW 11.5 mph - 0.00 in Rain Light Rain
9:26 AM 37.4 °F 28.5 °F 33.8 °F 87% 30.06 in 10.0 mi NNW 15.0 mph - 0.02 in Rain Light Rain
9:52 AM 37.0 °F 28.1 °F 33.1 °F 86% 30.07 in 10.0 mi NNW 15.0 mph 20.7 mph 0.04 in Rain Light Rain
10:52 AM 37.0 °F 32.4 °F 33.1 °F 86% 30.07 in 10.0 mi NNW 5.8 mph - 0.03 in Rain Light Rain
11:39 AM 35.6 °F 29.2 °F 33.8 °F 93% 30.08 in 5.0 mi NNW 8.1 mph - 0.03 in Snow Light Snow
11:52 AM 36.0 °F 29.6 °F 33.1 °F 89% 30.09 in 5.0 mi NNW 8.1 mph - 0.04 in Snow Light Snow
12:09 PM 35.6 °F 28.0 °F 33.8 °F 93% 30.07 in 8.0 mi North 10.4 mph - 0.02 in Rain Light Freezing Rain
12:30 PM 37.4 °F 30.8 °F 33.8 °F 87% 30.06 in 10.0 mi NNW 9.2 mph - 0.02 in Rain Light Rain
12:37 PM 37.4 °F 29.8 °F 33.8 °F 87% 30.06 in 10.0 mi NNW 11.5 mph - 0.02 in Rain Light Rain
12:52 PM 39.0 °F 29.6 °F 32.0 °F 76% 30.06 in 10.0 mi NNW 18.4 mph - 0.02 in   Overcast
1:24 PM 39.2 °F 31.6 °F 33.8 °F 81% 30.04 in 10.0 mi NNW 12.7 mph 21.9 mph 0.00 in   Overcast
1:52 PM 39.9 °F 31.8 °F 33.1 °F 77% 30.05 in 10.0 mi NNW 15.0 mph 20.7 mph 0.00 in   Overcast
2:52 PM 39.9 °F 31.8 °F 30.9 °F 70% 30.04 in 10.0 mi NNW 15.0 mph 23.0 mph N/A   Overcast
2:59 PM 39.2 °F 31.2 °F 30.2 °F 70% 30.03 in 10.0 mi NNW 13.8 mph - N/A   Overcast
3:44 PM 39.2 °F 30.5 °F 33.8 °F 81% 30.02 in 10.0 mi NNW 16.1 mph 23.0 mph 0.00 in Rain Light Rain
3:52 PM 39.9 °F 31.4 °F 33.1 °F 77% 30.04 in 10.0 mi NNW 16.1 mph - 0.00 in Rain Light Rain
4:15 PM 39.2 °F 32.5 °F 33.8 °F 81% 30.02 in 10.0 mi NNW 10.4 mph 19.6 mph 0.00 in Rain Light Rain
4:52 PM 39.9 °F 32.5 °F 32.0 °F 73% 30.04 in 10.0 mi NW 12.7 mph - 0.00 in Rain Light Rain
5:52 PM 41.0 °F 34.3 °F 30.9 °F 67% 30.03 in 10.0 mi North 11.5 mph - 0.01 in   Overcast
6:52 PM 41.0 °F 34.3 °F 30.0 °F 65% 30.04 in 10.0 mi NNW 11.5 mph - N/A   Overcast
7:52 PM 41.0 °F 35.8 °F 30.0 °F 65% 30.05 in 10.0 mi NNW 8.1 mph - N/A   Overcast
8:52 PM 41.0 °F 34.3 °F 28.9 °F 62% 30.06 in 10.0 mi NNW 11.5 mph - N/A   Overcast
9:52 PM 41.0 °F 33.9 °F 28.0 °F 60% 30.07 in 10.0 mi North 12.7 mph - N/A   Overcast
10:52 PM 39.9 °F 33.4 °F 27.0 °F 60% 30.09 in 10.0 mi NNW 10.4 mph 17.3 mph N/A   Overcast
11:52 PM 39.0 °F 33.4 °F 27.0 °F 62% 30.09 in 10.0 mi NNW 8.1 mph - N/A   Scattered Clouds